TimeCST,TemperatureF,Dew PointF,Humidity,Sea Level PressureIn,VisibilityMPH,Wind Direction,Wind SpeedMPH,Gust SpeedMPH,PrecipitationIn,Events,Conditions,WindDirDegrees,DateUTC
12:15 AM,33.8,28.4,81,29.69,10.0,SW,4.6,-,N/A,,Overcast,220,2013-02-14 06:15:00
12:35 AM,33.8,28.4,81,29.69,10.0,South,4.6,-,N/A,,Overcast,190,2013-02-14 06:35:00
12:55 AM,32.0,28.4,87,29.68,10.0,South,3.5,-,N/A,,Overcast,190,2013-02-14 06:55:00
1:15 AM,32.0,30.2,93,29.67,10.0,South,4.6,-,N/A,,Mostly Cloudy,190,2013-02-14 07:15:00
1:35 AM,33.8,30.2,87,29.67,10.0,SSW,5.8,-,N/A,,Mostly Cloudy,200,2013-02-14 07:35:00
1:55 AM,33.8,30.2,87,29.66,10.0,SSW,4.6,-,N/A,,Light Drizzle,200,2013-02-14 07:55:00
2:15 AM,33.8,30.2,87,29.65,7.0,South,4.6,-,N/A,,Drizzle,180,2013-02-14 08:15:00
2:35 AM,33.8,30.2,87,29.64,10.0,South,5.8,-,N/A,,Drizzle,180,2013-02-14 08:35:00
2:55 AM,33.8,32.0,93,29.63,5.0,South,5.8,-,N/A,Rain,Light Rain,180,2013-02-14 08:55:00
3:15 AM,33.8,32.0,93,29.63,5.0,South,6.9,-,0.01,Rain,Light Rain,180,2013-02-14 09:15:00
3:35 AM,33.8,32.0,93,29.61,7.0,South,6.9,-,0.01,Rain,Rain,170,2013-02-14 09:35:00
3:55 AM,33.8,32.0,93,29.60,7.0,SSE,5.8,-,0.01,,Overcast,150,2013-02-14 09:55:00
4:15 AM,33.8,32.0,93,29.59,7.0,SE,6.9,-,N/A,,Overcast,130,2013-02-14 10:15:00
4:35 AM,33.8,32.0,93,29.59,7.0,South,9.2,-,N/A,,Overcast,170,2013-02-14 10:35:00
4:55 AM,33.8,32.0,93,29.58,7.0,South,9.2,-,N/A,,Overcast,170,2013-02-14 10:55:00
5:15 AM,33.8,32.0,93,29.58,7.0,South,8.1,-,N/A,,Mostly Cloudy,180,2013-02-14 11:15:00
5:35 AM,33.8,32.0,93,29.58,7.0,South,6.9,-,0.01,,Scattered Clouds,190,2013-02-14 11:35:00
5:55 AM,33.8,32.0,93,29.58,7.0,South,8.1,-,0.01,,Mostly Cloudy,190,2013-02-14 11:55:00
6:50 AM,35.6,30.2,81,29.58,10.0,SSW,6.9,-,N/A,,Overcast,210,2013-02-14 12:50:00
7:45 AM,35.6,30.2,81,29.58,10.0,SW,8.1,-,N/A,,Overcast,230,2013-02-14 13:45:00
9:45 AM,35.6,30.2,81,29.59,7.0,WSW,11.5,-,N/A,,Drizzle,250,2013-02-14 15:45:00
10:45 AM,35.6,32.0,87,29.61,10.0,West,11.5,18.4,N/A,Rain,Light Rain,270,2013-02-14 16:45:00
11:45 AM,35.6,32.0,87,29.63,10.0,West,10.4,-,N/A,,Overcast,270,2013-02-14 17:45:00
12:45 PM,33.8,30.2,87,29.64,7.0,NW,16.1,23.0,N/A,Rain,Light Rain,310,2013-02-14 18:45:00
1:45 PM,33.8,28.4,81,29.70,10.0,NW,17.3,28.8,N/A,,Overcast,310,2013-02-14 19:45:00
2:50 PM,33.8,28.4,81,29.74,10.0,WNW,18.4,26.5,N/A,,Overcast,290,2013-02-14 20:50:00
3:45 PM,32.0,26.6,80,29.79,10.0,WNW,15.0,24.2,N/A,,Overcast,290,2013-02-14 21:45:00
4:45 PM,30.2,26.6,86,29.83,3.0,WNW,16.1,27.6,N/A,Snow,Light Snow,300,2013-02-14 22:45:00
5:45 PM,30.2,26.6,86,29.87,5.0,WNW,13.8,-,N/A,Snow,Light Snow,290,2013-02-14 23:45:00
6:45 PM,30.2,24.8,80,29.90,10.0,West,13.8,-,N/A,,Overcast,280,2013-02-15 00:45:00
7:45 PM,30.2,23.0,75,29.91,10.0,West,9.2,-,N/A,,Mostly Cloudy,280,2013-02-15 01:45:00
8:15 PM,32.0,23.0,69,29.91,10.0,WNW,8.1,-,N/A,,Overcast,290,2013-02-15 02:15:00
8:35 PM,32.0,23.0,69,29.92,10.0,West,6.9,-,N/A,,Overcast,280,2013-02-15 02:35:00
8:45 PM,30.2,21.2,69,29.92,10.0,WNW,9.2,-,N/A,,Overcast,290,2013-02-15 02:45:00
8:55 PM,30.2,23.0,75,29.92,10.0,West,5.8,-,N/A,,Overcast,280,2013-02-15 02:55:00
9:15 PM,30.2,23.0,75,29.93,10.0,WNW,8.1,-,N/A,,Mostly Cloudy,290,2013-02-15 03:15:00
9:35 PM,30.2,23.0,75,29.94,10.0,West,6.9,-,N/A,,Overcast,280,2013-02-15 03:35:00
9:55 PM,30.2,23.0,75,29.94,10.0,WNW,6.9,-,N/A,,Mostly Cloudy,290,2013-02-15 03:55:00
10:15 PM,30.2,23.0,75,29.94,10.0,WNW,8.1,-,N/A,,Mostly Cloudy,300,2013-02-15 04:15:00
10:35 PM,30.2,21.2,69,29.94,10.0,WNW,5.8,-,N/A,,Scattered Clouds,300,2013-02-15 04:35:00
10:55 PM,28.4,21.2,74,29.95,10.0,WNW,5.8,-,N/A,,Scattered Clouds,300,2013-02-15 04:55:00
11:15 PM,30.2,21.2,69,29.95,10.0,WNW,8.1,-,N/A,,Mostly Cloudy,300,2013-02-15 05:15:00
11:35 PM,30.2,23.0,75,29.96,10.0,NNW,8.1,-,N/A,,Overcast,330,2013-02-15 05:35:00
11:55 PM,28.4,24.8,86,29.96,7.0,NNW,5.8,-,N/A,Snow,Light Snow,330,2013-02-15 05:55:00